[[{"header":{"parameterUnit":"m.s-1","parameterCategory":2,"la1":30.2992,"la2":30.254,"lo1":-89.0895,"lo2":-89.0443,"dy":0.0025,"dx":0.0025,"nx":19,"ny":19,"refTime":"2026-05-04T03:00:00:Z","depth":"0","parameterNumber":2,"parameterNumberName":"U-component_of_CURRENTS"},"data":[0,0,0,0.1396,0.1395,0.134,0.134,0.1376,0.1377,0,0,0,0,0,0,0,0,0,0,0,0.1422,0.1422,0.1397,0.1395,0.134,0.134,0.1376,0.1377,0,0,0,0,0,0,0,0,0,0,0,0.1422,0.1422,0.1421,0.1395,0.134,0.134,0.1376,0.1391,0,0,0,0,0,0,0,0,0,0,0.1432,0.1458,0.1422,0.1421,0.1395,0.134,0.134,0.1391,0.1391,0.1432,0,0.1424,0,0.1402,0.1382,0.1382,0,0,0,0.1396,0.1458,0.1424,0.1421,0.1394,0.134,0.1365,0.139,0.139,0.1432,0.1424,0.1425,0.1402,0.1382,0.1383,0.1493,0.1494,0,0,0.1399,0.1432,0.1424,0.1424,0.1383,0.1367,0.1363,0.1388,0.1404,0.1424,0.1425,0.1403,0.1383,0.1384,0.1493,0.1494,0,0,0,0.1407,0.1435,0.1398,0.1424,0.1405,0.1365,0.1361,0.1403,0.1385,0.1425,0.1403,0.1383,0.1384,0.1492,0.1493,0.1524,0,0,0,0.1409,0.1439,0.14,0.1422,0.1403,0.1393,0.1376,0.1383,0.1385,0.1403,0.1383,0.1385,0.1491,0.1493,0.1521,0.1553,0,0,0,0.1424,0.1441,0.143,0.1424,0.1396,0.1391,0.1375,0.1382,0.1373,0.1382,0.1385,0.1491,0.1492,0.1519,0.1549,0.164,0,0,0,0.1465,0.1456,0.1432,0.1424,0.1396,0.1378,0.1374,0.1374,0.1383,0.1384,0.1491,0.1493,0.1518,0.1547,0.1637,0.1673,0.1693,0,0,0.1471,0.1458,0.145,0.1426,0.1408,0.1386,0.1412,0.1419,0.1427,0.1489,0.1491,0.1522,0.1549,0.1639,0.1765,0.1781,0,0,0,0.1463,0.1454,0.1447,0.1432,0.1415,0.1435,0.1429,0.1454,0.1502,0.1438,0.1546,0.1563,0.1619,0.1634,0.1647,0.1498,0.15,0.15,0.15,0.1521,0.1486,0.1478,0.1446,0.1455,0.1476,0.1513,0.1554,0.154,0.1579,0.1604,0.1718,0.1734,0.1745,0.1589,0.1614,0.1614,0.1614,0.1614,0.1519,0.1506,0.1495,0.1468,0.1497,0.1527,0.1606,0.162,0.1722,0.1672,0.1725,0.1685,0.1761,0.159,0.1616,0.1616,0.1616,0.1616,0.1615,0.1545,0.1533,0.1507,0.1488,0.153,0.1567,0.1674,0.1723,0.1769,0.1819,0.1867,0.1866,0.1705,0.185,0.185,0.1851,0.1851,0.1852,0.1852,0.158,0.1551,0.1527,0.1516,0.1529,0.1601,0.1722,0.1811,0.1917,0.1933,0.1934,0.1734,0.1791,0.177,0.1861,0.1859,0.1858,0.1857,0.1857,0.1584,0.1574,0.1537,0.1531,0.1563,0.1639,0.1763,0.1943,0.2047,0.211,0.1893,0.2009,0.2018,0.2006,0.1991,0.2134,0.2134,0.2134,0.2134,0.1601,0.1588,0.1538,0.1528,0.1576,0.1656,0.18,0.1956,0.2003,0.1979,0.1921,0.1823,0.1818,0.1807,0.18,0.1778,0.1864,0.1863,0.1862,0.16,0.1583,0.155,0.152,0.1562,0.1669,0.1767,0.1844,0.1892,0.1831,0.1705,0.1717,0.1547,0.1553,0.1511,0.1513,0.1469,0,0]},{"header":{"parameterUnit":"m.s-1","parameterCategory":2,"la1":30.2992,"la2":30.254,"lo1":-89.0895,"lo2":-89.0443,"dy":0.0025,"dx":0.0025,"nx":19,"ny":19,"refTime":"2026-05-04T03:00:00:Z","depth":"0","parameterNumber":3,"parameterNumberName":"V-component_of_CURRENTS"},"data":[0,0,0,-0.0012,-0.001,0.0039,0.004,0.0066,0.0066,0,0,0,0,0,0,0,0,0,0,0,-0.0028,-0.0028,-0.0012,-0.001,0.0039,0.004,0.0066,0.0066,0,0,0,0,0,0,0,0,0,0,0,-0.0029,-0.0028,-0.0027,-0.001,0.0039,0.004,0.0066,0.0036,0,0,0,0,0,0,0,0,0,0,-0.0008,-0.0035,-0.0028,-0.0027,-0.001,0.0039,0.004,0.0035,0.0038,0.0034,0,0.0048,0,0.0059,0.0067,0.0067,0,0,0,-0.0015,-0.0038,-0.0004,-0.0027,-0.0009,0.0039,0.0016,0.0037,0.004,0.0038,0.0049,0.005,0.006,0.0067,0.0067,0.0081,0.0081,0,0,-0.0018,-0.0041,-0.0006,-0.0002,0.0012,0.0014,0.0017,0.0039,0.0033,0.0049,0.0051,0.006,0.0067,0.0068,0.0081,0.0081,0,0,0,-0.0023,-0.0043,-0.001,-0.0003,0.001,0.0016,0.0019,0.0032,0.0049,0.0051,0.006,0.0068,0.0068,0.0081,0.0081,0.0109,0,0,0,-0.0024,-0.0045,-0.0011,-0.0027,0.001,0.0022,0.0011,0.0048,0.0051,0.006,0.0068,0.0068,0.0081,0.0081,0.0108,0.0125,0,0,0,-0.0032,-0.0047,-0.0033,-0.0028,-0.0002,0.0022,0.004,0.0049,0.0056,0.0067,0.0068,0.0081,0.0081,0.0108,0.0124,0.0133,0,0,0,-0.0068,-0.0042,-0.0034,-0.0005,-0.0002,0.0044,0.004,0.0062,0.0073,0.0068,0.0081,0.0081,0.0107,0.0123,0.0132,0.0211,0.0222,0,0,-0.005,-0.0041,-0.002,-0.001,0.0042,0.0037,0.0072,0.0081,0.0068,0.007,0.0071,0.0109,0.0124,0.0132,0.021,0.0221,0,0,0,-0.0023,-0.0004,0.0011,0.0042,0.007,0.0091,0.0097,0.0092,0.0092,0.0076,0.01,0.0109,0.0113,0.0159,0.0167,0.0198,0.008,0.008,0.008,-0.0038,-0.0001,0.004,0.0087,0.0108,0.0127,0.0134,0.0125,0.0114,0.0109,0.0126,0.0144,0.0193,0.02,0.023,0.0116,0.0116,0.0116,0.0116,0.0006,0.0041,0.0072,0.0129,0.0149,0.0174,0.0174,0.0164,0.0159,0.014,0.0143,0.0179,0.0211,0.024,0.0117,0.0117,0.0117,0.0117,0.0117,0.001,0.0036,0.0073,0.0149,0.0189,0.021,0.0244,0.022,0.0187,0.019,0.0233,0.0234,0.0264,0.0192,0.0192,0.0192,0.0192,0.0192,0.0192,0.0003,0.0046,0.0106,0.0175,0.0219,0.0264,0.0282,0.0286,0.0286,0.0273,0.0273,0.0282,0.0167,0.017,0.0194,0.0193,0.0193,0.0193,0.0193,0.0036,0.0053,0.0142,0.0196,0.03,0.0372,0.0379,0.042,0.04,0.0413,0.0407,0.0313,0.0311,0.0305,0.0311,0.037,0.037,0.037,0.037,0.0047,0.0065,0.0185,0.0274,0.0362,0.0425,0.0548,0.0604,0.0573,0.0567,0.0495,0.0503,0.0494,0.0502,0.0492,0.0501,0.0606,0.0607,0.0607,0.0076,0.0109,0.0192,0.0288,0.0396,0.0492,0.0646,0.0812,0.0751,0.0615,0.0521,0.0511,0.0518,0.0502,0.0507,0.049,0.0502,0,0]}],[{"header":{"parameterUnit":"m.s-1","parameterCategory":2,"la1":30.2992,"la2":30.254,"lo1":-89.0895,"lo2":-89.0443,"dy":0.0025,"dx":0.0025,"nx":19,"ny":19,"refTime":"2026-05-04T03:00:00:Z","depth":"2","parameterNumber":2,"parameterNumberName":"U-component_of_CURRENTS"},"data":[0,0,0,0.124,0.124,0.1234,0.1234,0.1268,0.1269,0,0,0,0,0,0,0,0,0,0,0,0.1244,0.1244,0.124,0.124,0.1234,0.1234,0.1268,0.1269,0,0,0,0,0,0,0,0,0,0,0,0.1244,0.1244,0.1244,0.124,0.1234,0.1234,0.1268,0.1261,0,0,0,0,0,0,0,0,0,0,0.1262,0.1266,0.1244,0.1244,0.124,0.1234,0.1234,0.126,0.1262,0.1285,0,0.1287,0,0.1281,0.1272,0.1273,0,0,0,0.1236,0.1265,0.1259,0.1244,0.124,0.1234,0.1235,0.1261,0.1262,0.1287,0.1287,0.1288,0.1282,0.1273,0.1273,0.1358,0.1359,0,0,0.1237,0.1247,0.1258,0.126,0.1244,0.1236,0.1235,0.1261,0.1269,0.1287,0.1289,0.1283,0.1273,0.1273,0.1358,0.1359,0,0,0,0.124,0.1248,0.124,0.1259,0.1256,0.1236,0.1235,0.1268,0.1264,0.1289,0.1283,0.1273,0.1274,0.1357,0.1358,0.138,0,0,0,0.124,0.125,0.124,0.1247,0.1255,0.1257,0.1241,0.1262,0.1265,0.1283,0.1273,0.1275,0.1357,0.1358,0.1378,0.1397,0,0,0,0.1243,0.1251,0.125,0.1248,0.1246,0.1256,0.1254,0.1262,0.1262,0.1273,0.1275,0.1356,0.1358,0.1376,0.1395,0.1441,0,0,0,0.1254,0.1257,0.125,0.1257,0.1246,0.1255,0.1253,0.1265,0.1275,0.1274,0.1357,0.1358,0.1376,0.1393,0.1439,0.1351,0.1354,0,0,0.126,0.1258,0.1261,0.1255,0.1263,0.1255,0.1284,0.1296,0.1305,0.1349,0.1351,0.1378,0.1394,0.1441,0.1423,0.1424,0,0,0,0.1265,0.1266,0.1269,0.1272,0.1277,0.1298,0.1303,0.1324,0.1364,0.1318,0.1398,0.1408,0.1436,0.1379,0.138,0.1364,0.1364,0.1364,0.1364,0.1282,0.1278,0.1286,0.1287,0.1303,0.1332,0.1359,0.1393,0.1391,0.1422,0.1439,0.1509,0.1448,0.1448,0.145,0.145,0.145,0.145,0.145,0.1283,0.1281,0.1295,0.13,0.133,0.1361,0.1422,0.1437,0.1509,0.1488,0.1514,0.1421,0.145,0.1452,0.1452,0.1452,0.1451,0.1451,0.1451,0.1279,0.1278,0.1284,0.1301,0.1343,0.1386,0.1454,0.1504,0.1538,0.1569,0.1523,0.1521,0.1524,0.1589,0.1589,0.1589,0.1589,0.159,0.159,0.1269,0.1275,0.1279,0.1307,0.1329,0.1384,0.1487,0.1531,0.1564,0.1556,0.1555,0.1557,0.1552,0.1534,0.1594,0.1594,0.1593,0.1593,0.1592,0.1251,0.1259,0.1264,0.1279,0.1323,0.1332,0.1446,0.1498,0.1567,0.1555,0.1548,0.1547,0.1538,0.1535,0.1517,0.157,0.157,0.157,0.157,0.124,0.1244,0.1243,0.1253,0.128,0.1304,0.1287,0.1296,0.1376,0.1372,0.138,0.1304,0.1309,0.1283,0.1286,0.1261,0.1248,0.1247,0.1247,0.1227,0.1231,0.1219,0.1224,0.1247,0.1235,0.1136,0.1009,0.1054,0.1233,0.1309,0.1552,0.1458,0.1459,0.1433,0.1433,0.1399,0,0]},{"header":{"parameterUnit":"m.s-1","parameterCategory":2,"la1":30.2992,"la2":30.254,"lo1":-89.0895,"lo2":-89.0443,"dy":0.0025,"dx":0.0025,"nx":19,"ny":19,"refTime":"2026-05-04T03:00:00:Z","depth":"2","parameterNumber":3,"parameterNumberName":"V-component_of_CURRENTS"},"data":[0,0,0,0.0114,0.0115,0.0139,0.0139,0.0179,0.018,0,0,0,0,0,0,0,0,0,0,0,0.0107,0.0108,0.0114,0.0115,0.0139,0.0139,0.0179,0.018,0,0,0,0,0,0,0,0,0,0,0,0.0107,0.0108,0.0108,0.0115,0.0139,0.0139,0.0179,0.0159,0,0,0,0,0,0,0,0,0,0,0.0135,0.0118,0.0108,0.0108,0.0115,0.0139,0.0139,0.0158,0.016,0.017,0,0.0175,0,0.0177,0.0182,0.0183,0,0,0,0.0117,0.0116,0.013,0.0108,0.0115,0.0139,0.0129,0.0159,0.0162,0.0174,0.0175,0.0177,0.0178,0.0183,0.0183,0.0225,0.0225,0,0,0.0115,0.0105,0.0129,0.0132,0.0122,0.0128,0.0129,0.0161,0.0159,0.0175,0.0177,0.0178,0.0183,0.0183,0.0225,0.0225,0,0,0,0.011,0.0104,0.0117,0.013,0.0134,0.0128,0.013,0.0158,0.0165,0.0178,0.0179,0.0183,0.0184,0.0225,0.0225,0.0259,0,0,0,0.011,0.0101,0.0117,0.011,0.0133,0.0143,0.0127,0.0162,0.0166,0.0179,0.0183,0.0184,0.0224,0.0225,0.0257,0.0284,0,0,0,0.0106,0.01,0.0105,0.0109,0.0119,0.0142,0.015,0.0163,0.0167,0.0183,0.0184,0.0224,0.0225,0.0256,0.0282,0.0321,0,0,0,0.0092,0.0109,0.0105,0.0124,0.0119,0.0153,0.015,0.017,0.0185,0.0183,0.0224,0.0225,0.0256,0.028,0.0319,0.0397,0.0412,0,0,0.011,0.011,0.0124,0.0122,0.016,0.015,0.0189,0.0201,0.0193,0.0215,0.0216,0.0258,0.0282,0.032,0.0418,0.0432,0,0,0,0.0128,0.014,0.015,0.0168,0.0186,0.021,0.0215,0.0219,0.0234,0.0203,0.0256,0.027,0.0293,0.0336,0.0347,0.0226,0.0226,0.0226,0.0226,0.0141,0.0158,0.0189,0.0214,0.0233,0.0253,0.0273,0.0278,0.0263,0.0269,0.0295,0.0346,0.0391,0.0401,0.0286,0.0286,0.0286,0.0287,0.0287,0.0183,0.021,0.0225,0.0262,0.0284,0.0314,0.0337,0.0331,0.0361,0.0326,0.0347,0.0367,0.0416,0.0289,0.0289,0.0288,0.0288,0.0288,0.0288,0.0203,0.0221,0.0238,0.0291,0.0335,0.036,0.0428,0.042,0.0402,0.0422,0.0472,0.0472,0.038,0.0431,0.0432,0.0432,0.0432,0.0432,0.0433,0.0221,0.0242,0.0282,0.033,0.0371,0.0433,0.0482,0.0516,0.0541,0.0528,0.0528,0.0396,0.0391,0.0389,0.0437,0.0436,0.0436,0.0435,0.0435,0.0263,0.0265,0.0328,0.037,0.0474,0.0583,0.0609,0.0693,0.0699,0.0725,0.0592,0.0587,0.0589,0.058,0.0583,0.0678,0.0678,0.0678,0.0678,0.0286,0.0293,0.0378,0.0458,0.0565,0.0658,0.0809,0.0839,0.0799,0.0752,0.0748,0.0723,0.0712,0.0718,0.0706,0.071,0.0838,0.0839,0.0839,0.032,0.034,0.0406,0.0482,0.0611,0.0759,0.0911,0.0919,0.0831,0.084,0.0723,0.0699,0.065,0.0638,0.0635,0.062,0.0621,0,0]}],[{"header":{"parameterUnit":"m.s-1","parameterCategory":2,"la1":30.2992,"la2":30.254,"lo1":-89.0895,"lo2":-89.0443,"dy":0.0025,"dx":0.0025,"nx":19,"ny":19,"refTime":"2026-05-04T03:00:00:Z","depth":"4","parameterNumber":2,"parameterNumberName":"U-component_of_CURRENTS"},"data":[0,0,0,0.0819,0.0822,0.0931,0.0932,0.0969,0.0969,0,0,0,0,0,0,0,0,0,0,0,0.0781,0.0782,0.0819,0.0822,0.0931,0.0932,0.0969,0.0969,0,0,0,0,0,0,0,0,0,0,0,0.0781,0.0782,0.0783,0.0823,0.0931,0.0932,0.0969,0.091,0,0,0,0,0,0,0,0,0,0,0.0815,0.0789,0.0782,0.0783,0.0823,0.0931,0.0932,0.0908,0.0913,0.0893,0,0.0923,0,0.0949,0.097,0.097,0,0,0,0.0813,0.0785,0.0826,0.0783,0.0824,0.0931,0.088,0.0912,0.0918,0.0899,0.0924,0.0926,0.095,0.097,0.097,0.0993,0.0994,0,0,0.0807,0.0785,0.0822,0.083,0.0868,0.0876,0.0883,0.0916,0.0919,0.0924,0.0927,0.095,0.097,0.097,0.0993,0.0994,0,0,0,0.0796,0.0781,0.0823,0.0827,0.0857,0.088,0.0888,0.0918,0.0936,0.0928,0.0951,0.097,0.097,0.0993,0.0993,0.1015,0,0,0,0.0792,0.0776,0.082,0.0806,0.0858,0.0901,0.0888,0.0934,0.0939,0.0951,0.097,0.0971,0.0993,0.0993,0.1014,0.1012,0,0,0,0.0774,0.0773,0.0794,0.0805,0.0858,0.0902,0.0921,0.0936,0.0952,0.097,0.0971,0.0993,0.0993,0.1013,0.101,0.1014,0,0,0,0.0736,0.0766,0.0793,0.0832,0.0858,0.0918,0.0922,0.0964,0.0982,0.097,0.0993,0.0993,0.1013,0.101,0.1014,0.0877,0,0,0,0.075,0.0767,0.079,0.0817,0.0873,0.0901,0.0943,0.0972,0.0976,0.0973,0.0974,0.1014,0.101,0.1014,0.0899,0,0,0,0,0.0778,0.0798,0.0819,0.0862,0.0906,0.094,0.0975,0.0986,0.1009,0.0992,0.1015,0.1012,0.1014,0.0933,0.0995,0.0995,0.0995,0.0995,0.0995,0.0746,0.0789,0.0826,0.0881,0.0916,0.0968,0.0989,0.1008,0.1017,0.1032,0.1031,0.1048,0.0964,0.1038,0.1038,0.1039,0.1039,0.1039,0.1039,0.0757,0.0775,0.0828,0.0884,0.0924,0.0963,0.1003,0.1022,0.1044,0.1048,0.1049,0.0962,0.1041,0.104,0.104,0.104,0.104,0.104,0.104,0.0719,0.0734,0.0787,0.086,0.091,0.0966,0.0987,0.1029,0.1054,0.1064,0.0978,0.1057,0.1053,0.1075,0.1075,0.1075,0.1075,0.1075,0.1075,0.0652,0.0706,0.0753,0.0836,0.0871,0.092,0.0985,0.0992,0.1034,0.0977,0.1074,0.106,0.1059,0.1055,0.1075,0.1075,0.1075,0.1075,0.1075,0.0612,0.0644,0.0704,0.0747,0.0815,0.083,0.0917,0.0908,0.0908,0.0881,0.0924,0.0932,0.0907,0.0909,0.0899,0.0874,0.0872,0.0871,0,0.0568,0.0594,0.0656,0.069,0.07,0.0761,0.0728,0.0759,0.0794,0.0766,0.0903,0.0952,0.0956,0.0929,0.0928,0.0915,0,0,0,0.0546,0.0573,0.0589,0.0637,0.0635,0.0639,0.0707,0.0682,0.0802,0.076,0.0828,0.0839,0.098,0.1076,0.1055,0.1054,0.1046,0,0]},{"header":{"parameterUnit":"m.s-1","parameterCategory":2,"la1":30.2992,"la2":30.254,"lo1":-89.0895,"lo2":-89.0443,"dy":0.0025,"dx":0.0025,"nx":19,"ny":19,"refTime":"2026-05-04T03:00:00:Z","depth":"4","parameterNumber":3,"parameterNumberName":"V-component_of_CURRENTS"},"data":[0,0,0,0.0161,0.0161,0.0176,0.0176,0.0236,0.0236,0,0,0,0,0,0,0,0,0,0,0,0.0159,0.0159,0.0161,0.0161,0.0176,0.0176,0.0236,0.0236,0,0,0,0,0,0,0,0,0,0,0,0.0159,0.0159,0.0159,0.0161,0.0176,0.0176,0.0235,0.0216,0,0,0,0,0,0,0,0,0,0,0.0198,0.0186,0.0159,0.0159,0.0161,0.0176,0.0176,0.0215,0.0217,0.0239,0,0.0237,0,0.0235,0.0241,0.0241,0,0,0,0.0168,0.0184,0.0187,0.0159,0.0161,0.0175,0.0171,0.0216,0.0219,0.0243,0.0238,0.024,0.0236,0.0241,0.0241,0.032,0.032,0,0,0.0167,0.0165,0.0185,0.0189,0.0161,0.0171,0.0171,0.0217,0.022,0.0238,0.0241,0.0237,0.0242,0.0242,0.0319,0.032,0,0,0,0.0161,0.0164,0.0166,0.0186,0.0184,0.0171,0.0172,0.0218,0.0218,0.0242,0.0238,0.0242,0.0243,0.0319,0.0319,0.0341,0,0,0,0.016,0.016,0.0165,0.0164,0.0183,0.0195,0.0172,0.0215,0.022,0.0238,0.0242,0.0243,0.0318,0.0319,0.0339,0.0364,0,0,0,0.0159,0.016,0.016,0.0164,0.0166,0.0194,0.0197,0.0216,0.0218,0.0241,0.0243,0.0318,0.0319,0.0338,0.0361,0.0397,0,0,0,0.0158,0.0168,0.0159,0.0172,0.0166,0.0193,0.0196,0.0219,0.0239,0.0242,0.0319,0.0319,0.0338,0.0359,0.0395,0.037,0,0,0,0.0172,0.0169,0.0178,0.0171,0.0199,0.0192,0.0234,0.0257,0.0262,0.0307,0.0308,0.034,0.0361,0.0396,0.0423,0,0,0,0,0.0184,0.0191,0.0198,0.021,0.0223,0.0252,0.0264,0.0278,0.0315,0.0276,0.0352,0.0365,0.0387,0.0367,0.0324,0.0324,0.0324,0.0323,0.0323,0.0207,0.0213,0.0237,0.0251,0.027,0.0298,0.0326,0.0351,0.0344,0.0364,0.0391,0.0446,0.0426,0.0392,0.0392,0.0393,0.0393,0.0393,0.0393,0.0237,0.0253,0.0269,0.0294,0.0322,0.0359,0.0401,0.0403,0.0454,0.0429,0.0448,0.0401,0.0395,0.0395,0.0394,0.0394,0.0394,0.0394,0.0394,0.0252,0.0263,0.0276,0.0319,0.0371,0.0405,0.0475,0.0489,0.0489,0.051,0.0496,0.0475,0.0464,0.0518,0.0518,0.0518,0.0519,0.0519,0.0519,0.0263,0.0278,0.031,0.0354,0.0396,0.046,0.0524,0.0554,0.0554,0.0538,0.0524,0.0489,0.0485,0.0473,0.0523,0.0522,0.0522,0.0522,0.0521,0.0283,0.0288,0.0336,0.0375,0.0473,0.0522,0.0576,0.0603,0.0634,0.0622,0.0554,0.0551,0.0547,0.0542,0.0532,0.0602,0.0602,0.0602,0,0.0295,0.0301,0.0367,0.0438,0.0523,0.0569,0.0616,0.0639,0.0619,0.0602,0.0633,0.0557,0.0553,0.0548,0.0543,0.0531,0,0,0,0.0313,0.033,0.0381,0.0449,0.0548,0.0599,0.0632,0.063,0.061,0.0622,0.0599,0.06,0.0567,0.0536,0.0524,0.0519,0.05,0,0]}]]